This is the latest recevied weather packets stored in our database for station/object WK1F-2. If no packets are shown the sender has not sent any weather packets the latest 10 day(s).
| Time | Temp. | Humidity | Pressure | Rain* | Wind** | Luminosity | Snow |
|---|---|---|---|---|---|---|---|
| 1777963642 | 15° C | 85% | 1015.6 hPa | 0 mm | - | - | - |
| 1777963342 | 15° C | 85% | 1015.6 hPa | 0 mm | - | - | - |
| 1777963042 | 15° C | 84% | 1015.8 hPa | 0 mm | - | - | - |
| 1777962742 | 15.56° C | 83% | 1015.7 hPa | 0 mm | - | - | - |
| 1777962442 | 15.56° C | 83% | 1015.7 hPa | 0 mm | - | - | - |
| 1777962142 | 15.56° C | 83% | 1015.8 hPa | 0 mm | - | - | - |
| 1777961842 | 15.56° C | 82% | 1016 hPa | 0 mm | - | - | - |
| 1777961542 | 15.56° C | 82% | 1016.1 hPa | 0 mm | - | - | - |
| 1777961242 | 16.11° C | 81% | 1016.2 hPa | 0 mm | - | - | - |
| 1777960941 | 16.11° C | 80% | 1016.2 hPa | 0 mm | - | - | - |
| 1777960641 | 16.11° C | 79% | 1016.2 hPa | 0 mm | - | - | - |
| 1777960341 | 16.67° C | 79% | 1016.2 hPa | 0 mm | - | - | - |
| 1777960041 | 16.67° C | 77% | 1016.3 hPa | 0 mm | - | - | - |
| 1777959741 | 17.22° C | 76% | 1016.3 hPa | 0 mm | - | - | - |
| 1777959441 | 17.22° C | 75% | 1016.3 hPa | 0 mm | - | - | - |
| 1777959141 | 17.78° C | 74% | 1016.5 hPa | 0 mm | - | - | - |
| 1777958841 | 18.33° C | 73% | 1016.5 hPa | 0 mm | - | - | - |
| 1777958541 | 18.33° C | 72% | 1016.6 hPa | 0 mm | - | - | - |
| 1777958241 | 18.33° C | 71% | 1016.7 hPa | 0 mm | - | - | - |
| 1777957941 | 18.89° C | 71% | 1016.6 hPa | 0 mm | - | - | - |
| 1777957641 | 18.89° C | 70% | 1016.8 hPa | 0 mm | - | - | - |
| 1777957341 | 19.44° C | 69% | 1016.8 hPa | 0 mm | - | - | - |
| 1777957041 | 19.44° C | 69% | 1016.8 hPa | 0 mm | - | - | - |
| 1777956741 | 19.44° C | 69% | 1016.7 hPa | 0 mm | - | - | - |
| 1777956441 | 19.44° C | 68% | 1016.7 hPa | 0 mm | - | - | - |
* Rain latest hour (hover to see other rain measurements)
** Current wind speed in m/s (hover to see current wind gust speed)